Location: Bühlhof
(48.7849°N, 8.6361°E)
Time: 20:30:45
(UTC+00:00)

Cosmos 2322 Rocket - Pass Details

Date: 19 January 2026
Orbit: 832 x 849 km, 71.0° (Epoch: 15 February)

Event Time Altitude Azimuth Distance (km) Brightness Sun altitude
Rises 17:56:17 0° 334° (NNW) 3,416 5.6 -18.3°
Reaches altitude 10° 18:00:46 10° 7° (N) 2,473 4.5 -19.0°
Enters shadow 18:02:12 11° 22° (NNE) 2,366 4.2 -19.3°
